PWSweather.com
Personal Weather Stations
Station Observations
NORTHPOLE1
Tombur Subdivision, North Pole, AK 99705

Tombur SubdivisionNorth Pole, AK 99705

Lat: 64.774039, Lon: -147.284862

Elevation: 434

Station Type: Davis Vantage Pro 2

http://kl7ac.com

High Low Average
Temperature 60.2°F15.7°C 54.3°F12.4°C 56.6°F13.7°C
Dew Point 59.7°F15.4°C 53.0°F11.7°C 55.6°F13.1°C
Winds 8.0 mph 12.9 kmh Calm Calm 2.0 mph SSE3.2 kmh SSE
Wind Gusts 21.0 mph33.8 kmh -- 7.0 mph11.3 kmh
Humidity 100% 87% 98%
Pressure 30.04 in1017.3 mb 29.89 in1012.2 mb -
Precipitation 0.45 in11.4 mm - -
Hour Temp Dew Point Humidity Winds Wind Gusts Pressure Precip Precip Rate Daily Precip Total
12:00 AM 54.9°F12.7°C 54.1°F12.3°C 97% 1.0 mph E1.6 kmh E 3.0 mph4.8 kmh 29.89 in1012.2 mb 0.00 in0.0 mm 0.00 in0.0 mm 0.00 in0.0 mm
12:05 AM 54.8°F12.7°C 54.0°F12.2°C 97% 1.0 mph E1.6 kmh E 3.0 mph4.8 kmh 29.89 in1012.2 mb 0.00 in0.0 mm 0.00 in0.0 mm 0.00 in0.0 mm
12:10 AM 54.8°F12.7°C 54.0°F12.2°C 97% 1.0 mph E1.6 kmh E 4.0 mph6.4 kmh 29.89 in1012.2 mb 0.00 in0.0 mm 0.00 in0.0 mm 0.00 in0.0 mm
12:15 AM 54.8°F12.7°C 54.0°F12.2°C 97% 1.0 mph E1.6 kmh E 4.0 mph6.4 kmh 29.89 in1012.2 mb 0.00 in0.0 mm 0.00 in0.0 mm 0.00 in0.0 mm
12:20 AM 54.8°F12.7°C 54.0°F12.2°C 97% 1.0 mph SE1.6 kmh SE 4.0 mph6.4 kmh 29.89 in1012.2 mb 0.00 in0.0 mm 0.00 in0.0 mm 0.00 in0.0 mm
12:25 AM 54.8°F12.7°C 54.0°F12.2°C 97% Calm Calm 4.0 mph6.4 kmh 29.89 in1012.2 mb 0.00 in0.0 mm 0.00 in0.0 mm 0.00 in0.0 mm
12:30 AM 54.8°F12.7°C 54.2°F12.3°C 100% Calm Calm 2.0 mph3.2 kmh 29.89 in1012.2 mb 0.00 in0.0 mm 0.00 in0.0 mm 0.00 in0.0 mm
12:35 AM 54.7°F12.6°C 54.1°F12.3°C 100% Calm Calm 1.0 mph1.6 kmh 29.89 in1012.2 mb 0.00 in0.0 mm 0.00 in0.0 mm 0.00 in0.0 mm
12:40 AM 54.7°F12.6°C 54.1°F12.3°C 100% Calm Calm 4.0 mph6.4 kmh 29.89 in1012.2 mb 0.00 in0.0 mm 0.00 in0.0 mm 0.00 in0.0 mm
12:45 AM 54.6°F12.6°C 54.0°F12.2°C 100% Calm Calm 4.0 mph6.4 kmh 29.90 in1012.5 mb 0.00 in0.0 mm 0.00 in0.0 mm 0.00 in0.0 mm
12:50 AM 54.6°F12.6°C 54.0°F12.2°C 100% Calm Calm 3.0 mph4.8 kmh 29.90 in1012.5 mb 0.00 in0.0 mm 0.00 in0.0 mm 0.00 in0.0 mm
12:55 AM 54.7°F12.6°C 54.1°F12.3°C 100% 1.0 mph NE1.6 kmh NE 3.0 mph4.8 kmh 29.90 in1012.5 mb 0.00 in0.0 mm 0.00 in0.0 mm 0.00 in0.0 mm
01:00 AM 54.6°F12.6°C 54.0°F12.2°C 100% Calm Calm 2.0 mph3.2 kmh 29.90 in1012.5 mb 0.00 in0.0 mm 0.00 in0.0 mm 0.00 in0.0 mm
01:05 AM 54.7°F12.6°C 54.1°F12.3°C 100% Calm Calm 2.0 mph3.2 kmh 29.90 in1012.5 mb 0.00 in0.0 mm 0.00 in0.0 mm 0.00 in0.0 mm
01:10 AM 54.7°F12.6°C 54.1°F12.3°C 100% Calm Calm 2.0 mph3.2 kmh 29.90 in1012.5 mb 0.00 in0.0 mm 0.00 in0.0 mm 0.00 in0.0 mm
01:15 AM 54.8°F12.7°C 54.2°F12.3°C 100% Calm Calm 2.0 mph3.2 kmh 29.91 in1012.9 mb 0.00 in0.0 mm 0.00 in0.0 mm 0.00 in0.0 mm
01:20 AM 54.8°F12.7°C 54.2°F12.3°C 100% Calm Calm 2.0 mph3.2 kmh 29.91 in1012.9 mb 0.00 in0.0 mm 0.00 in0.0 mm 0.00 in0.0 mm
01:25 AM 54.8°F12.7°C 54.2°F12.3°C 100% Calm Calm -- 29.91 in1012.9 mb 0.00 in0.0 mm 0.00 in0.0 mm 0.00 in0.0 mm
01:30 AM 54.8°F12.7°C 54.2°F12.3°C 100% Calm Calm -- 29.91 in1012.9 mb 0.00 in0.0 mm 0.00 in0.0 mm 0.00 in0.0 mm
01:35 AM 54.8°F12.7°C 54.2°F12.3°C 100% Calm Calm 1.0 mph1.6 kmh 29.91 in1012.9 mb 0.00 in0.0 mm 0.00 in0.0 mm 0.00 in0.0 mm
01:40 AM 54.9°F12.7°C 54.3°F12.4°C 100% Calm Calm 2.0 mph3.2 kmh 29.91 in1012.9 mb 0.00 in0.0 mm 0.00 in0.0 mm 0.00 in0.0 mm
01:45 AM 54.9°F12.7°C 54.3°F12.4°C 100% Calm Calm 2.0 mph3.2 kmh 29.92 in1013.2 mb 0.00 in0.0 mm 0.00 in0.0 mm 0.00 in0.0 mm
01:50 AM 54.9°F12.7°C 54.3°F12.4°C 100% Calm Calm 1.0 mph1.6 kmh 29.91 in1012.9 mb 0.00 in0.0 mm 0.00 in0.0 mm 0.00 in0.0 mm
01:55 AM 55.0°F12.8°C 54.4°F12.4°C 100% Calm Calm -- 29.91 in1012.9 mb 0.00 in0.0 mm 0.00 in0.0 mm 0.00 in0.0 mm
02:00 AM 54.9°F12.7°C 54.3°F12.4°C 100% Calm Calm -- 29.91 in1012.9 mb 0.00 in0.0 mm 0.00 in0.0 mm 0.00 in0.0 mm
02:05 AM 55.0°F12.8°C 54.4°F12.4°C 100% Calm Calm -- 29.92 in1013.2 mb 0.00 in0.0 mm 0.00 in0.0 mm 0.00 in0.0 mm
02:10 AM 55.0°F12.8°C 54.4°F12.4°C 100% Calm Calm 2.0 mph3.2 kmh 29.92 in1013.2 mb 0.00 in0.0 mm 0.00 in0.0 mm 0.00 in0.0 mm
02:15 AM 55.0°F12.8°C 54.4°F12.4°C 100% Calm Calm 2.0 mph3.2 kmh 29.92 in1013.2 mb 0.00 in0.0 mm 0.00 in0.0 mm 0.00 in0.0 mm
02:20 AM 55.0°F12.8°C 54.4°F12.4°C 100% Calm Calm 1.0 mph1.6 kmh 29.92 in1013.2 mb 0.00 in0.0 mm 0.00 in0.0 mm 0.00 in0.0 mm
02:25 AM 54.9°F12.7°C 54.3°F12.4°C 100% Calm Calm 1.0 mph1.6 kmh 29.92 in1013.2 mb 0.00 in0.0 mm 0.00 in0.0 mm 0.00 in0.0 mm
02:30 AM 54.9°F12.7°C 54.3°F12.4°C 100% Calm Calm 2.0 mph3.2 kmh 29.92 in1013.2 mb 0.00 in0.0 mm 0.00 in0.0 mm 0.00 in0.0 mm
02:35 AM 54.9°F12.7°C 54.3°F12.4°C 100% Calm Calm 2.0 mph3.2 kmh 29.92 in1013.2 mb 0.00 in0.0 mm 0.00 in0.0 mm 0.00 in0.0 mm
02:40 AM 54.9°F12.7°C 54.3°F12.4°C 100% Calm Calm 2.0 mph3.2 kmh 29.92 in1013.2 mb 0.00 in0.0 mm 0.00 in0.0 mm 0.00 in0.0 mm
02:45 AM 54.9°F12.7°C 54.3°F12.4°C 100% Calm Calm 1.0 mph1.6 kmh 29.92 in1013.2 mb 0.00 in0.0 mm 0.00 in0.0 mm 0.00 in0.0 mm
02:50 AM 54.9°F12.7°C 54.3°F12.4°C 100% Calm Calm 1.0 mph1.6 kmh 29.92 in1013.2 mb 0.00 in0.0 mm 0.00 in0.0 mm 0.00 in0.0 mm
02:55 AM 55.0°F12.8°C 54.4°F12.4°C 100% Calm Calm 2.0 mph3.2 kmh 29.92 in1013.2 mb 0.00 in0.0 mm 0.00 in0.0 mm 0.00 in0.0 mm
03:00 AM 55.0°F12.8°C 54.4°F12.4°C 100% Calm Calm 2.0 mph3.2 kmh 29.92 in1013.2 mb 0.00 in0.0 mm 0.00 in0.0 mm 0.00 in0.0 mm
03:05 AM 55.0°F12.8°C 54.4°F12.4°C 100% Calm Calm 2.0 mph3.2 kmh 29.92 in1013.2 mb 0.00 in0.0 mm 0.00 in0.0 mm 0.00 in0.0 mm
03:10 AM 55.0°F12.8°C 54.4°F12.4°C 100% Calm Calm 2.0 mph3.2 kmh 29.92 in1013.2 mb 0.00 in0.0 mm 0.00 in0.0 mm 0.00 in0.0 mm
03:15 AM 55.1°F12.8°C 54.5°F12.5°C 100% Calm Calm 2.0 mph3.2 kmh 29.93 in1013.5 mb 0.00 in0.0 mm 0.00 in0.0 mm 0.00 in0.0 mm
03:20 AM 55.1°F12.8°C 54.5°F12.5°C 100% Calm Calm 2.0 mph3.2 kmh 29.93 in1013.5 mb 0.00 in0.0 mm 0.00 in0.0 mm 0.00 in0.0 mm
03:25 AM 55.1°F12.8°C 54.5°F12.5°C 100% Calm Calm 3.0 mph4.8 kmh 29.93 in1013.5 mb 0.00 in0.0 mm 0.00 in0.0 mm 0.00 in0.0 mm
03:30 AM 55.1°F12.8°C 54.5°F12.5°C 100% Calm Calm 3.0 mph4.8 kmh 29.93 in1013.5 mb 0.00 in0.0 mm 0.00 in0.0 mm 0.00 in0.0 mm
03:35 AM 55.1°F12.8°C 54.5°F12.5°C 100% Calm Calm 1.0 mph1.6 kmh 29.93 in1013.5 mb 0.00 in0.0 mm 0.00 in0.0 mm 0.00 in0.0 mm
03:40 AM 55.1°F12.8°C 54.5°F12.5°C 100% Calm Calm 1.0 mph1.6 kmh 29.93 in1013.5 mb 0.00 in0.0 mm 0.00 in0.0 mm 0.00 in0.0 mm
03:45 AM 55.0°F12.8°C 54.4°F12.4°C 100% Calm Calm 2.0 mph3.2 kmh 29.93 in1013.5 mb 0.00 in0.0 mm 0.00 in0.0 mm 0.00 in0.0 mm
03:50 AM 55.0°F12.8°C 54.4°F12.4°C 100% Calm Calm 2.0 mph3.2 kmh 29.93 in1013.5 mb 0.00 in0.0 mm 0.00 in0.0 mm 0.00 in0.0 mm
03:55 AM 54.9°F12.7°C 54.3°F12.4°C 100% Calm Calm 2.0 mph3.2 kmh 29.93 in1013.5 mb 0.00 in0.0 mm 0.00 in0.0 mm 0.00 in0.0 mm
04:00 AM 54.9°F12.7°C 54.3°F12.4°C 100% Calm Calm 3.0 mph4.8 kmh 29.93 in1013.5 mb 0.00 in0.0 mm 0.00 in0.0 mm 0.00 in0.0 mm
04:05 AM 54.9°F12.7°C 54.3°F12.4°C 100% Calm Calm 3.0 mph4.8 kmh 29.93 in1013.5 mb 0.00 in0.0 mm 0.00 in0.0 mm 0.00 in0.0 mm
04:10 AM 54.9°F12.7°C 54.3°F12.4°C 100% 1.0 mph ENE1.6 kmh ENE 4.0 mph6.4 kmh 29.93 in1013.5 mb 0.00 in0.0 mm 0.00 in0.0 mm 0.00 in0.0 mm
04:15 AM 54.9°F12.7°C 54.3°F12.4°C 100% Calm Calm 4.0 mph6.4 kmh 29.93 in1013.5 mb 0.00 in0.0 mm 0.00 in0.0 mm 0.00 in0.0 mm
04:20 AM 54.8°F12.7°C 54.2°F12.3°C 100% Calm Calm 3.0 mph4.8 kmh 29.93 in1013.5 mb 0.00 in0.0 mm 0.00 in0.0 mm 0.00 in0.0 mm
04:25 AM 54.8°F12.7°C 54.2°F12.3°C 100% 1.0 mph E1.6 kmh E 4.0 mph6.4 kmh 29.93 in1013.5 mb 0.00 in0.0 mm 0.00 in0.0 mm 0.00 in0.0 mm
04:30 AM 54.8°F12.7°C 54.2°F12.3°C 100% 1.0 mph E1.6 kmh E 4.0 mph6.4 kmh 29.93 in1013.5 mb 0.01 in0.3 mm 0.12 in3.0 mm 0.01 in0.3 mm
04:35 AM 54.8°F12.7°C 54.2°F12.3°C 100% Calm Calm 3.0 mph4.8 kmh 29.93 in1013.5 mb 0.01 in0.3 mm 0.00 in0.0 mm 0.01 in0.3 mm
04:40 AM 54.8°F12.7°C 54.2°F12.3°C 100% Calm Calm 3.0 mph4.8 kmh 29.93 in1013.5 mb 0.01 in0.3 mm 0.00 in0.0 mm 0.01 in0.3 mm
04:45 AM 54.8°F12.7°C 54.2°F12.3°C 100% Calm Calm 3.0 mph4.8 kmh 29.94 in1013.9 mb 0.01 in0.3 mm 0.00 in0.0 mm 0.01 in0.3 mm
04:50 AM 54.8°F12.7°C 54.2°F12.3°C 100% Calm Calm 3.0 mph4.8 kmh 29.93 in1013.5 mb 0.01 in0.3 mm 0.00 in0.0 mm 0.01 in0.3 mm
04:55 AM 54.9°F12.7°C 54.3°F12.4°C 100% 1.0 mph SSW1.6 kmh SSW 6.0 mph9.7 kmh 29.94 in1013.9 mb 0.01 in0.3 mm 0.00 in0.0 mm 0.01 in0.3 mm
05:00 AM 54.8°F12.7°C 54.2°F12.3°C 100% 1.0 mph SSW1.6 kmh SSW 6.0 mph9.7 kmh 29.94 in1013.9 mb 0.01 in0.3 mm 0.00 in0.0 mm 0.01 in0.3 mm
05:05 AM 54.9°F12.7°C 54.3°F12.4°C 100% Calm Calm 2.0 mph3.2 kmh 29.94 in1013.9 mb 0.01 in0.3 mm 0.00 in0.0 mm 0.01 in0.3 mm
05:10 AM 54.9°F12.7°C 54.3°F12.4°C 100% Calm Calm 3.0 mph4.8 kmh 29.94 in1013.9 mb 0.01 in0.3 mm 0.00 in0.0 mm 0.01 in0.3 mm
05:15 AM 55.0°F12.8°C 54.4°F12.4°C 100% Calm Calm 3.0 mph4.8 kmh 29.94 in1013.9 mb 0.01 in0.3 mm 0.00 in0.0 mm 0.01 in0.3 mm
05:20 AM 55.0°F12.8°C 54.4°F12.4°C 100% Calm Calm 2.0 mph3.2 kmh 29.94 in1013.9 mb 0.02 in0.5 mm 0.12 in3.0 mm 0.02 in0.5 mm
05:25 AM 55.0°F12.8°C 54.4°F12.4°C 100% Calm Calm 2.0 mph3.2 kmh 29.94 in1013.9 mb 0.02 in0.5 mm 0.00 in0.0 mm 0.02 in0.5 mm
05:30 AM 55.1°F12.8°C 54.5°F12.5°C 100% Calm Calm 4.0 mph6.4 kmh 29.94 in1013.9 mb 0.01 in0.3 mm 0.00 in0.0 mm 0.02 in0.5 mm
05:35 AM 55.1°F12.8°C 54.5°F12.5°C 100% 1.0 mph SW1.6 kmh SW 4.0 mph6.4 kmh 29.94 in1013.9 mb 0.02 in0.5 mm 0.12 in3.0 mm 0.03 in0.8 mm
05:40 AM 55.1°F12.8°C 54.5°F12.5°C 100% 1.0 mph SW1.6 kmh SW 4.0 mph6.4 kmh 29.94 in1013.9 mb 0.03 in0.8 mm 0.12 in3.0 mm 0.04 in1.0 mm
05:45 AM 55.1°F12.8°C 54.5°F12.5°C 100% 1.0 mph SW1.6 kmh SW 4.0 mph6.4 kmh 29.94 in1013.9 mb 0.05 in1.3 mm 0.24 in6.1 mm 0.06 in1.5 mm
05:50 AM 55.1°F12.8°C 54.5°F12.5°C 100% 1.0 mph S1.6 kmh S 4.0 mph6.4 kmh 29.94 in1013.9 mb 0.06 in1.5 mm 0.12 in3.0 mm 0.07 in1.8 mm
05:55 AM 55.0°F12.8°C 54.4°F12.4°C 100% 1.0 mph S1.6 kmh S 4.0 mph6.4 kmh 29.93 in1013.5 mb 0.07 in1.8 mm 0.12 in3.0 mm 0.08 in2.0 mm
06:00 AM 54.8°F12.7°C 54.2°F12.3°C 100% 1.0 mph S1.6 kmh S 4.0 mph6.4 kmh 29.93 in1013.5 mb 0.08 in2.0 mm 0.01 in0.3 mm 0.09 in2.3 mm
06:05 AM 54.7°F12.6°C 54.1°F12.3°C 100% Calm Calm 3.0 mph4.8 kmh 29.93 in1013.5 mb 0.08 in2.0 mm 0.00 in0.0 mm 0.09 in2.3 mm
06:10 AM 54.6°F12.6°C 54.0°F12.2°C 100% Calm Calm 2.0 mph3.2 kmh 29.93 in1013.5 mb 0.08 in2.0 mm 0.00 in0.0 mm 0.09 in2.3 mm
06:15 AM 54.6°F12.6°C 54.0°F12.2°C 100% Calm Calm 2.0 mph3.2 kmh 29.94 in1013.9 mb 0.09 in2.3 mm 0.12 in3.0 mm 0.10 in2.5 mm
06:20 AM 54.6°F12.6°C 54.0°F12.2°C 100% Calm Calm 2.0 mph3.2 kmh 29.94 in1013.9 mb 0.08 in2.0 mm 0.00 in0.0 mm 0.10 in2.5 mm
06:25 AM 54.7°F12.6°C 54.1°F12.3°C 100% Calm Calm 3.0 mph4.8 kmh 29.95 in1014.2 mb 0.08 in2.0 mm 0.00 in0.0 mm 0.10 in2.5 mm
06:30 AM 54.8°F12.7°C 54.2°F12.3°C 100% Calm Calm 3.0 mph4.8 kmh 29.95 in1014.2 mb 0.09 in2.3 mm 0.12 in3.0 mm 0.11 in2.8 mm
06:35 AM 54.8°F12.7°C 54.2°F12.3°C 100% Calm Calm 3.0 mph4.8 kmh 29.95 in1014.2 mb 0.09 in2.3 mm 0.00 in0.0 mm 0.12 in3.0 mm
06:40 AM 54.8°F12.7°C 54.2°F12.3°C 100% 1.0 mph SSE1.6 kmh SSE 5.0 mph8.0 kmh 29.95 in1014.2 mb 0.08 in2.0 mm 0.00 in0.0 mm 0.12 in3.0 mm
06:45 AM 54.7°F12.6°C 54.1°F12.3°C 100% 1.0 mph SSE1.6 kmh SSE 5.0 mph8.0 kmh 29.95 in1014.2 mb 0.07 in1.8 mm 0.00 in0.0 mm 0.13 in3.3 mm
06:50 AM 54.7°F12.6°C 54.1°F12.3°C 100% 1.0 mph SE1.6 kmh SE 4.0 mph6.4 kmh 29.95 in1014.2 mb 0.07 in1.8 mm 0.00 in0.0 mm 0.14 in3.6 mm
06:55 AM 54.6°F12.6°C 54.0°F12.2°C 100% 1.0 mph SE1.6 kmh SE 4.0 mph6.4 kmh 29.95 in1014.2 mb 0.08 in2.0 mm 0.12 in3.0 mm 0.16 in4.1 mm
07:00 AM 54.6°F12.6°C 54.0°F12.2°C 100% 1.0 mph SE1.6 kmh SE 4.0 mph6.4 kmh 29.95 in1014.2 mb 0.08 in2.0 mm 0.00 in0.0 mm 0.17 in4.3 mm
07:05 AM 54.6°F12.6°C 54.0°F12.2°C 100% 1.0 mph SSW1.6 kmh SSW 5.0 mph8.0 kmh 29.95 in1014.2 mb 0.08 in2.0 mm 0.00 in0.0 mm 0.17 in4.3 mm
07:10 AM 54.5°F12.5°C 53.9°F12.2°C 100% 1.0 mph SW1.6 kmh SW 5.0 mph8.0 kmh 29.95 in1014.2 mb 0.09 in2.3 mm 0.12 in3.0 mm 0.18 in4.6 mm
07:15 AM 54.5°F12.5°C 53.9°F12.2°C 100% 1.0 mph SW1.6 kmh SW 4.0 mph6.4 kmh 29.95 in1014.2 mb 0.09 in2.3 mm 0.00 in0.0 mm 0.19 in4.8 mm
07:20 AM 54.6°F12.6°C 54.0°F12.2°C 100% 1.0 mph SW1.6 kmh SW 4.0 mph6.4 kmh 29.95 in1014.2 mb 0.11 in2.8 mm 0.24 in6.1 mm 0.21 in5.3 mm
07:25 AM 54.6°F12.6°C 54.0°F12.2°C 100% 1.0 mph SW1.6 kmh SW 4.0 mph6.4 kmh 29.95 in1014.2 mb 0.12 in3.0 mm 0.12 in3.0 mm 0.22 in5.6 mm
07:30 AM 54.6°F12.6°C 54.0°F12.2°C 100% 1.0 mph SSW1.6 kmh SSW 5.0 mph8.0 kmh 29.95 in1014.2 mb 0.12 in3.0 mm 0.00 in0.0 mm 0.23 in5.8 mm
07:35 AM 54.6°F12.6°C 54.0°F12.2°C 100% 1.0 mph S1.6 kmh S 5.0 mph8.0 kmh 29.95 in1014.2 mb 0.12 in3.0 mm 0.00 in0.0 mm 0.24 in6.1 mm
07:40 AM 54.6°F12.6°C 54.0°F12.2°C 100% 1.0 mph S1.6 kmh S 5.0 mph8.0 kmh 29.96 in1014.6 mb 0.12 in3.0 mm 0.00 in0.0 mm 0.24 in6.1 mm
07:45 AM 54.7°F12.6°C 54.1°F12.3°C 100% 1.0 mph S1.6 kmh S 5.0 mph8.0 kmh 29.95 in1014.2 mb 0.12 in3.0 mm 0.00 in0.0 mm 0.25 in6.4 mm
07:50 AM 54.7°F12.6°C 54.1°F12.3°C 100% 1.0 mph S1.6 kmh S 4.0 mph6.4 kmh 29.96 in1014.6 mb 0.11 in2.8 mm 0.00 in0.0 mm 0.25 in6.4 mm
07:55 AM 54.8°F12.7°C 54.2°F12.3°C 100% 1.0 mph S1.6 kmh S 4.0 mph6.4 kmh 29.96 in1014.6 mb 0.09 in2.3 mm 0.00 in0.0 mm 0.25 in6.4 mm
08:00 AM 54.9°F12.7°C 54.3°F12.4°C 100% 1.0 mph SSE1.6 kmh SSE 4.0 mph6.4 kmh 29.96 in1014.6 mb 0.08 in2.0 mm 0.00 in0.0 mm 0.25 in6.4 mm
08:05 AM 55.0°F12.8°C 54.4°F12.4°C 100% 1.0 mph SSE1.6 kmh SSE 4.0 mph6.4 kmh 29.96 in1014.6 mb 0.08 in2.0 mm 0.00 in0.0 mm 0.25 in6.4 mm
08:10 AM 55.1°F12.8°C 54.5°F12.5°C 100% 2.0 mph SSE3.2 kmh SSE 9.0 mph14.5 kmh 29.96 in1014.6 mb 0.07 in1.8 mm 0.00 in0.0 mm 0.25 in6.4 mm
08:15 AM 55.2°F12.9°C 54.6°F12.6°C 100% 2.0 mph S3.2 kmh S 9.0 mph14.5 kmh 29.96 in1014.6 mb 0.07 in1.8 mm 0.00 in0.0 mm 0.26 in6.6 mm
08:20 AM 55.3°F12.9°C 54.7°F12.6°C 100% 1.0 mph S1.6 kmh S 6.0 mph9.7 kmh 29.96 in1014.6 mb 0.05 in1.3 mm 0.00 in0.0 mm 0.26 in6.6 mm
08:25 AM 55.4°F13.0°C 54.8°F12.7°C 100% 1.0 mph S1.6 kmh S 8.0 mph12.9 kmh 29.96 in1014.6 mb 0.04 in1.0 mm 0.00 in0.0 mm 0.26 in6.6 mm
08:30 AM 55.4°F13.0°C 54.8°F12.7°C 100% 2.0 mph S3.2 kmh S 8.0 mph12.9 kmh 29.96 in1014.6 mb 0.03 in0.8 mm 0.00 in0.0 mm 0.26 in6.6 mm
08:35 AM 55.3°F12.9°C 54.7°F12.6°C 100% 3.0 mph SSW4.8 kmh SSW 16.0 mph25.7 kmh 29.96 in1014.6 mb 0.02 in0.5 mm 0.00 in0.0 mm 0.26 in6.6 mm
08:40 AM 55.1°F12.8°C 54.5°F12.5°C 100% 3.0 mph SSW4.8 kmh SSW 16.0 mph25.7 kmh 29.96 in1014.6 mb 0.02 in0.5 mm 0.00 in0.0 mm 0.26 in6.6 mm
08:45 AM 55.1°F12.8°C 54.5°F12.5°C 100% 2.0 mph SSW3.2 kmh SSW 10.0 mph16.1 kmh 29.96 in1014.6 mb 0.02 in0.5 mm 0.00 in0.0 mm 0.27 in6.9 mm
08:50 AM 55.1°F12.8°C 54.5°F12.5°C 100% 2.0 mph SSW3.2 kmh SSW 10.0 mph16.1 kmh 29.96 in1014.6 mb 0.02 in0.5 mm 0.00 in0.0 mm 0.27 in6.9 mm
08:55 AM 55.0°F12.8°C 54.4°F12.4°C 100% 2.0 mph SSW3.2 kmh SSW 11.0 mph17.7 kmh 29.96 in1014.6 mb 0.04 in1.0 mm 0.24 in6.1 mm 0.29 in7.4 mm
09:00 AM 54.9°F12.7°C 54.3°F12.4°C 100% 2.0 mph SSW3.2 kmh SSW 11.0 mph17.7 kmh 29.96 in1014.6 mb 0.04 in1.0 mm 0.00 in0.0 mm 0.29 in7.4 mm
09:05 AM 54.9°F12.7°C 54.3°F12.4°C 100% 2.0 mph SW3.2 kmh SW 9.0 mph14.5 kmh 29.96 in1014.6 mb 0.05 in1.3 mm 0.12 in3.0 mm 0.30 in7.6 mm
09:10 AM 54.9°F12.7°C 54.3°F12.4°C 100% 2.0 mph SSW3.2 kmh SSW 9.0 mph14.5 kmh 29.97 in1014.9 mb 0.05 in1.3 mm 0.00 in0.0 mm 0.30 in7.6 mm
09:15 AM 55.0°F12.8°C 54.4°F12.4°C 100% 1.0 mph SSW1.6 kmh SSW 5.0 mph8.0 kmh 29.96 in1014.6 mb 0.04 in1.0 mm 0.00 in0.0 mm 0.30 in7.6 mm
09:20 AM 55.1°F12.8°C 54.5°F12.5°C 100% 1.0 mph S1.6 kmh S 4.0 mph6.4 kmh 29.96 in1014.6 mb 0.05 in1.3 mm 0.12 in3.0 mm 0.31 in7.9 mm
09:25 AM 55.3°F12.9°C 54.7°F12.6°C 100% 1.0 mph S1.6 kmh S 5.0 mph8.0 kmh 29.96 in1014.6 mb 0.05 in1.3 mm 0.00 in0.0 mm 0.31 in7.9 mm
09:30 AM 55.5°F13.1°C 55.2°F12.9°C 99% 2.0 mph S3.2 kmh S 7.0 mph11.3 kmh 29.97 in1014.9 mb 0.05 in1.3 mm 0.00 in0.0 mm 0.31 in7.9 mm
09:35 AM 55.6°F13.1°C 55.0°F12.8°C 100% 2.0 mph S3.2 kmh S 8.0 mph12.9 kmh 29.97 in1014.9 mb 0.05 in1.3 mm 0.00 in0.0 mm 0.31 in7.9 mm
09:40 AM 55.5°F13.1°C 54.9°F12.7°C 100% 3.0 mph SW4.8 kmh SW 12.0 mph19.3 kmh 29.97 in1014.9 mb 0.05 in1.3 mm 0.00 in0.0 mm 0.31 in7.9 mm
09:45 AM 55.6°F13.1°C 55.0°F12.8°C 100% 4.0 mph SW6.4 kmh SW 12.0 mph19.3 kmh 29.97 in1014.9 mb 0.04 in1.0 mm 0.00 in0.0 mm 0.31 in7.9 mm
09:50 AM 55.7°F13.2°C 55.1°F12.8°C 100% 4.0 mph SW6.4 kmh SW 13.0 mph20.9 kmh 29.97 in1014.9 mb 0.04 in1.0 mm 0.00 in0.0 mm 0.31 in7.9 mm
09:55 AM 55.7°F13.2°C 55.1°F12.8°C 100% 4.0 mph SW6.4 kmh SW 13.0 mph20.9 kmh 29.97 in1014.9 mb 0.02 in0.5 mm 0.00 in0.0 mm 0.31 in7.9 mm
10:00 AM 55.7°F13.2°C 55.1°F12.8°C 100% 2.0 mph SW3.2 kmh SW 10.0 mph16.1 kmh 29.97 in1014.9 mb 0.02 in0.5 mm 0.00 in0.0 mm 0.31 in7.9 mm
10:05 AM 55.7°F13.2°C 55.1°F12.8°C 100% 2.0 mph SW3.2 kmh SW 10.0 mph16.1 kmh 29.97 in1014.9 mb 0.01 in0.3 mm 0.00 in0.0 mm 0.31 in7.9 mm
10:10 AM 55.8°F13.2°C 55.2°F12.9°C 100% 2.0 mph SW3.2 kmh SW 6.0 mph9.7 kmh 29.97 in1014.9 mb 0.02 in0.5 mm 0.12 in3.0 mm 0.32 in8.1 mm
10:15 AM 55.8°F13.2°C 55.2°F12.9°C 100% 2.0 mph SW3.2 kmh SW 6.0 mph9.7 kmh 29.97 in1014.9 mb 0.01 in0.3 mm 0.00 in0.0 mm 0.32 in8.1 mm
10:20 AM 55.8°F13.2°C 55.2°F12.9°C 100% 2.0 mph SW3.2 kmh SW 5.0 mph8.0 kmh 29.97 in1014.9 mb 0.01 in0.3 mm 0.00 in0.0 mm 0.32 in8.1 mm
10:25 AM 56.0°F13.3°C 55.4°F13.0°C 100% 1.0 mph SW1.6 kmh SW 5.0 mph8.0 kmh 29.97 in1014.9 mb 0.01 in0.3 mm 0.00 in0.0 mm 0.32 in8.1 mm
10:30 AM 56.2°F13.4°C 55.9°F13.3°C 99% 1.0 mph SW1.6 kmh SW 5.0 mph8.0 kmh 29.97 in1014.9 mb 0.01 in0.3 mm 0.00 in0.0 mm 0.32 in8.1 mm
10:35 AM 56.4°F13.6°C 56.1°F13.4°C 99% 1.0 mph SW1.6 kmh SW 6.0 mph9.7 kmh 29.98 in1015.2 mb 0.02 in0.5 mm 0.12 in3.0 mm 0.33 in8.4 mm
10:40 AM 56.4°F13.6°C 55.8°F13.2°C 100% 2.0 mph SW3.2 kmh SW 9.0 mph14.5 kmh 29.97 in1014.9 mb 0.02 in0.5 mm 0.00 in0.0 mm 0.33 in8.4 mm
10:45 AM 56.4°F13.6°C 55.8°F13.2°C 100% 3.0 mph SW4.8 kmh SW 9.0 mph14.5 kmh 29.97 in1014.9 mb 0.02 in0.5 mm 0.00 in0.0 mm 0.33 in8.4 mm
10:50 AM 56.5°F13.6°C 55.9°F13.3°C 100% 3.0 mph WSW4.8 kmh WSW 10.0 mph16.1 kmh 29.97 in1014.9 mb 0.02 in0.5 mm 0.00 in0.0 mm 0.33 in8.4 mm
10:55 AM 56.7°F13.7°C 56.1°F13.4°C 100% 2.0 mph SW3.2 kmh SW 10.0 mph16.1 kmh 29.97 in1014.9 mb 0.02 in0.5 mm 0.00 in0.0 mm 0.33 in8.4 mm
11:00 AM 56.8°F13.8°C 56.5°F13.6°C 99% 2.0 mph WSW3.2 kmh WSW 7.0 mph11.3 kmh 29.98 in1015.2 mb 0.02 in0.5 mm 0.00 in0.0 mm 0.33 in8.4 mm
11:05 AM 56.8°F13.8°C 56.5°F13.6°C 99% 2.0 mph WSW3.2 kmh WSW 7.0 mph11.3 kmh 29.98 in1015.2 mb 0.02 in0.5 mm 0.00 in0.0 mm 0.33 in8.4 mm
11:10 AM 56.8°F13.8°C 56.5°F13.6°C 99% 1.0 mph WSW1.6 kmh WSW 6.0 mph9.7 kmh 29.98 in1015.2 mb 0.01 in0.3 mm 0.00 in0.0 mm 0.33 in8.4 mm
11:15 AM 56.7°F13.7°C 56.4°F13.6°C 99% 1.0 mph SW1.6 kmh SW 7.0 mph11.3 kmh 29.98 in1015.2 mb 0.01 in0.3 mm 0.00 in0.0 mm 0.33 in8.4 mm
11:20 AM 56.7°F13.7°C 56.4°F13.6°C 99% 1.0 mph SW1.6 kmh SW 7.0 mph11.3 kmh 29.98 in1015.2 mb 0.01 in0.3 mm 0.00 in0.0 mm 0.33 in8.4 mm
11:25 AM 56.8°F13.8°C 56.5°F13.6°C 99% 1.0 mph SW1.6 kmh SW 5.0 mph8.0 kmh 29.98 in1015.2 mb 0.01 in0.3 mm 0.00 in0.0 mm 0.33 in8.4 mm
11:30 AM 56.9°F13.8°C 56.6°F13.7°C 99% 2.0 mph SW3.2 kmh SW 6.0 mph9.7 kmh 29.98 in1015.2 mb 0.01 in0.3 mm 0.00 in0.0 mm 0.33 in8.4 mm
11:35 AM 56.8°F13.8°C 56.5°F13.6°C 99% 2.0 mph SW3.2 kmh SW 6.0 mph9.7 kmh 29.98 in1015.2 mb 0.01 in0.3 mm 0.00 in0.0 mm 0.34 in8.6 mm
11:40 AM 56.8°F13.8°C 56.5°F13.6°C 99% 2.0 mph SW3.2 kmh SW 10.0 mph16.1 kmh 29.98 in1015.2 mb 0.01 in0.3 mm 0.00 in0.0 mm 0.34 in8.6 mm
11:45 AM 56.7°F13.7°C 56.4°F13.6°C 99% 3.0 mph WSW4.8 kmh WSW 14.0 mph22.5 kmh 29.98 in1015.2 mb 0.02 in0.5 mm 0.12 in3.0 mm 0.35 in8.9 mm
11:50 AM 56.5°F13.6°C 55.9°F13.3°C 100% 5.0 mph WSW8.0 kmh WSW 14.0 mph22.5 kmh 29.98 in1015.2 mb 0.02 in0.5 mm 0.00 in0.0 mm 0.35 in8.9 mm
11:55 AM 56.4°F13.6°C 55.8°F13.2°C 100% 5.0 mph WSW8.0 kmh WSW 19.0 mph30.6 kmh 29.99 in1015.6 mb 0.02 in0.5 mm 0.00 in0.0 mm 0.35 in8.9 mm
12:00 PM 56.4°F13.6°C 55.8°F13.2°C 100% 5.0 mph WSW8.0 kmh WSW 19.0 mph30.6 kmh 29.99 in1015.6 mb 0.02 in0.5 mm 0.00 in0.0 mm 0.35 in8.9 mm
12:05 PM 56.3°F13.5°C 55.7°F13.2°C 100% 5.0 mph SW8.0 kmh SW 14.0 mph22.5 kmh 29.99 in1015.6 mb 0.03 in0.8 mm 0.12 in3.0 mm 0.36 in9.1 mm
12:10 PM 56.1°F13.4°C 55.5°F13.1°C 100% 5.0 mph SW8.0 kmh SW 14.0 mph22.5 kmh 29.99 in1015.6 mb 0.03 in0.8 mm 0.00 in0.0 mm 0.36 in9.1 mm
12:15 PM 56.1°F13.4°C 55.5°F13.1°C 100% 5.0 mph SW8.0 kmh SW 13.0 mph20.9 kmh 29.99 in1015.6 mb 0.04 in1.0 mm 0.12 in3.0 mm 0.37 in9.4 mm
12:20 PM 56.1°F13.4°C 55.5°F13.1°C 100% 4.0 mph WSW6.4 kmh WSW 13.0 mph20.9 kmh 29.99 in1015.6 mb 0.04 in1.0 mm 0.00 in0.0 mm 0.37 in9.4 mm
12:25 PM 56.0°F13.3°C 55.4°F13.0°C 100% 4.0 mph SW6.4 kmh SW 13.0 mph20.9 kmh 29.99 in1015.6 mb 0.05 in1.3 mm 0.12 in3.0 mm 0.38 in9.7 mm
12:30 PM 55.8°F13.2°C 55.2°F12.9°C 100% 5.0 mph SW8.0 kmh SW 13.0 mph20.9 kmh 29.99 in1015.6 mb 0.05 in1.3 mm 0.00 in0.0 mm 0.38 in9.7 mm
12:35 PM 55.8°F13.2°C 55.2°F12.9°C 100% 4.0 mph SW6.4 kmh SW 12.0 mph19.3 kmh 30.00 in1015.9 mb 0.05 in1.3 mm 0.00 in0.0 mm 0.39 in9.9 mm
12:40 PM 55.6°F13.1°C 55.0°F12.8°C 100% 4.0 mph SW6.4 kmh SW 12.0 mph19.3 kmh 30.00 in1015.9 mb 0.05 in1.3 mm 0.00 in0.0 mm 0.39 in9.9 mm
12:45 PM 55.5°F13.1°C 54.9°F12.7°C 100% 4.0 mph SW6.4 kmh SW 12.0 mph19.3 kmh 30.00 in1015.9 mb 0.05 in1.3 mm 0.00 in0.0 mm 0.40 in10.2 mm
12:50 PM 55.5°F13.1°C 54.9°F12.7°C 100% 4.0 mph SW6.4 kmh SW 11.0 mph17.7 kmh 30.00 in1015.9 mb 0.06 in1.5 mm 0.12 in3.0 mm 0.41 in10.4 mm
12:55 PM 55.4°F13.0°C 54.8°F12.7°C 100% 4.0 mph SW6.4 kmh SW 10.0 mph16.1 kmh 30.00 in1015.9 mb 0.06 in1.5 mm 0.00 in0.0 mm 0.41 in10.4 mm
01:00 PM 55.4°F13.0°C 54.8°F12.7°C 100% 3.0 mph SW4.8 kmh SW 10.0 mph16.1 kmh 30.00 in1015.9 mb 0.06 in1.5 mm 0.00 in0.0 mm 0.41 in10.4 mm
01:05 PM 55.5°F13.1°C 54.9°F12.7°C 100% 2.0 mph SW3.2 kmh SW 8.0 mph12.9 kmh 30.00 in1015.9 mb 0.06 in1.5 mm 0.00 in0.0 mm 0.42 in10.7 mm
01:10 PM 55.6°F13.1°C 55.0°F12.8°C 100% 2.0 mph SSW3.2 kmh SSW 8.0 mph12.9 kmh 30.00 in1015.9 mb 0.06 in1.5 mm 0.00 in0.0 mm 0.42 in10.7 mm
01:15 PM 55.8°F13.2°C 55.2°F12.9°C 100% 3.0 mph SW4.8 kmh SW 7.0 mph11.3 kmh 30.00 in1015.9 mb 0.05 in1.3 mm 0.00 in0.0 mm 0.42 in10.7 mm
01:20 PM 56.0°F13.3°C 55.4°F13.0°C 100% 3.0 mph SW4.8 kmh SW 10.0 mph16.1 kmh 30.00 in1015.9 mb 0.05 in1.3 mm 0.00 in0.0 mm 0.42 in10.7 mm
01:25 PM 56.2°F13.4°C 55.9°F13.3°C 99% 2.0 mph SW3.2 kmh SW 10.0 mph16.1 kmh 30.00 in1015.9 mb 0.05 in1.3 mm 0.00 in0.0 mm 0.43 in10.9 mm
01:30 PM 56.4°F13.6°C 56.1°F13.4°C 99% 3.0 mph SW4.8 kmh SW 8.0 mph12.9 kmh 30.00 in1015.9 mb 0.05 in1.3 mm 0.00 in0.0 mm 0.43 in10.9 mm
01:35 PM 56.5°F13.6°C 55.9°F13.3°C 100% 2.0 mph SW3.2 kmh SW 8.0 mph12.9 kmh 30.00 in1015.9 mb 0.04 in1.0 mm 0.00 in0.0 mm 0.43 in10.9 mm
01:40 PM 56.5°F13.6°C 55.9°F13.3°C 100% 2.0 mph SW3.2 kmh SW 6.0 mph9.7 kmh 30.00 in1015.9 mb 0.04 in1.0 mm 0.00 in0.0 mm 0.43 in10.9 mm
01:45 PM 56.6°F13.7°C 56.0°F13.3°C 100% 1.0 mph SW1.6 kmh SW 5.0 mph8.0 kmh 30.00 in1015.9 mb 0.03 in0.8 mm 0.00 in0.0 mm 0.43 in10.9 mm
01:50 PM 56.7°F13.7°C 56.4°F13.6°C 99% 1.0 mph SW1.6 kmh SW 4.0 mph6.4 kmh 30.00 in1015.9 mb 0.02 in0.5 mm 0.00 in0.0 mm 0.43 in10.9 mm
01:55 PM 56.9°F13.8°C 56.6°F13.7°C 99% 1.0 mph SW1.6 kmh SW 4.0 mph6.4 kmh 30.00 in1015.9 mb 0.02 in0.5 mm 0.00 in0.0 mm 0.43 in10.9 mm
02:00 PM 57.0°F13.9°C 56.4°F13.6°C 100% 1.0 mph SW1.6 kmh SW 4.0 mph6.4 kmh 30.00 in1015.9 mb 0.01 in0.3 mm 0.00 in0.0 mm 0.43 in10.9 mm
02:05 PM 57.1°F13.9°C 56.5°F13.6°C 100% 1.0 mph SW1.6 kmh SW 4.0 mph6.4 kmh 30.00 in1015.9 mb 0.01 in0.3 mm 0.00 in0.0 mm 0.43 in10.9 mm
02:10 PM 57.1°F13.9°C 56.5°F13.6°C 100% 1.0 mph SSW1.6 kmh SSW 4.0 mph6.4 kmh 30.00 in1015.9 mb 0.01 in0.3 mm 0.00 in0.0 mm 0.43 in10.9 mm
02:15 PM 57.1°F13.9°C 56.5°F13.6°C 100% 1.0 mph S1.6 kmh S 5.0 mph8.0 kmh 30.00 in1015.9 mb 0.01 in0.3 mm 0.00 in0.0 mm 0.43 in10.9 mm
02:20 PM 57.2°F14.0°C 56.6°F13.7°C 100% 1.0 mph SSW1.6 kmh SSW 6.0 mph9.7 kmh 29.99 in1015.6 mb 0.02 in0.5 mm 0.12 in3.0 mm 0.44 in11.2 mm
02:25 PM 57.2°F14.0°C 56.6°F13.7°C 100% 1.0 mph SW1.6 kmh SW 6.0 mph9.7 kmh 30.00 in1015.9 mb 0.01 in0.3 mm 0.00 in0.0 mm 0.44 in11.2 mm
02:30 PM 57.2°F14.0°C 56.6°F13.7°C 100% Calm Calm 2.0 mph3.2 kmh 30.00 in1015.9 mb 0.01 in0.3 mm 0.00 in0.0 mm 0.44 in11.2 mm
02:35 PM 57.2°F14.0°C 56.6°F13.7°C 100% Calm Calm 2.0 mph3.2 kmh 30.00 in1015.9 mb 0.01 in0.3 mm 0.00 in0.0 mm 0.44 in11.2 mm
02:40 PM 57.2°F14.0°C 56.6°F13.7°C 100% Calm Calm 4.0 mph6.4 kmh 30.00 in1015.9 mb 0.01 in0.3 mm 0.00 in0.0 mm 0.44 in11.2 mm
02:45 PM 57.1°F13.9°C 56.5°F13.6°C 100% 1.0 mph S1.6 kmh S 4.0 mph6.4 kmh 29.99 in1015.6 mb 0.01 in0.3 mm 0.00 in0.0 mm 0.44 in11.2 mm
02:50 PM 57.2°F14.0°C 56.6°F13.7°C 100% 1.0 mph S1.6 kmh S 3.0 mph4.8 kmh 29.99 in1015.6 mb 0.01 in0.3 mm 0.00 in0.0 mm 0.44 in11.2 mm
02:55 PM 57.7°F14.3°C 57.4°F14.1°C 99% Calm Calm 2.0 mph3.2 kmh 29.99 in1015.6 mb 0.02 in0.5 mm 0.12 in3.0 mm 0.45 in11.4 mm
03:00 PM 58.0°F14.4°C 57.7°F14.3°C 99% 1.0 mph SSE1.6 kmh SSE 5.0 mph8.0 kmh 29.99 in1015.6 mb 0.02 in0.5 mm 0.00 in0.0 mm 0.45 in11.4 mm
03:05 PM 58.3°F14.6°C 58.0°F14.4°C 99% 1.0 mph SSE1.6 kmh SSE 5.0 mph8.0 kmh 29.99 in1015.6 mb 0.02 in0.5 mm 0.00 in0.0 mm 0.45 in11.4 mm
03:10 PM 58.8°F14.9°C 58.5°F14.7°C 99% 1.0 mph SSE1.6 kmh SSE 4.0 mph6.4 kmh 29.99 in1015.6 mb 0.02 in0.5 mm 0.00 in0.0 mm 0.45 in11.4 mm
03:15 PM 59.0°F15.0°C 58.7°F14.8°C 99% 1.0 mph SSE1.6 kmh SSE 3.0 mph4.8 kmh 29.99 in1015.6 mb 0.02 in0.5 mm 0.00 in0.0 mm 0.45 in11.4 mm
03:20 PM 59.0°F15.0°C 58.7°F14.8°C 99% 1.0 mph S1.6 kmh S 4.0 mph6.4 kmh 29.99 in1015.6 mb 0.01 in0.3 mm 0.00 in0.0 mm 0.45 in11.4 mm
03:25 PM 59.0°F15.0°C 58.7°F14.8°C 99% 1.0 mph SSW1.6 kmh SSW 6.0 mph9.7 kmh 29.99 in1015.6 mb 0.01 in0.3 mm 0.00 in0.0 mm 0.45 in11.4 mm
03:30 PM 59.0°F15.0°C 58.7°F14.8°C 99% 1.0 mph SW1.6 kmh SW 6.0 mph9.7 kmh 29.99 in1015.6 mb 0.01 in0.3 mm 0.00 in0.0 mm 0.45 in11.4 mm
03:35 PM 59.0°F15.0°C 58.7°F14.8°C 99% 1.0 mph SW1.6 kmh SW 5.0 mph8.0 kmh 29.99 in1015.6 mb 0.01 in0.3 mm 0.00 in0.0 mm 0.45 in11.4 mm
03:40 PM 59.2°F15.1°C 58.9°F14.9°C 99% 1.0 mph SW1.6 kmh SW 5.0 mph8.0 kmh 29.99 in1015.6 mb 0.01 in0.3 mm 0.00 in0.0 mm 0.45 in11.4 mm
03:45 PM 59.3°F15.2°C 59.0°F15.0°C 99% 1.0 mph SSW1.6 kmh SSW 5.0 mph8.0 kmh 29.99 in1015.6 mb 0.01 in0.3 mm 0.00 in0.0 mm 0.45 in11.4 mm
03:50 PM 59.5°F15.3°C 59.2°F15.1°C 99% 1.0 mph SW1.6 kmh SW 6.0 mph9.7 kmh 29.99 in1015.6 mb 0.01 in0.3 mm 0.00 in0.0 mm 0.45 in11.4 mm
03:55 PM 59.8°F15.4°C 59.5°F15.3°C 99% 2.0 mph SW3.2 kmh SW 10.0 mph16.1 kmh 29.99 in1015.6 mb 0.00 in0.0 mm 0.00 in0.0 mm 0.45 in11.4 mm
04:00 PM 59.9°F15.5°C 59.6°F15.3°C 99% 2.0 mph SW3.2 kmh SW 10.0 mph16.1 kmh 29.99 in1015.6 mb 0.00 in0.0 mm 0.00 in0.0 mm 0.45 in11.4 mm
04:05 PM 59.9°F15.5°C 59.6°F15.3°C 99% 2.0 mph SW3.2 kmh SW 10.0 mph16.1 kmh 29.99 in1015.6 mb 0.00 in0.0 mm 0.00 in0.0 mm 0.45 in11.4 mm
04:10 PM 59.7°F15.4°C 59.1°F15.1°C 100% 2.0 mph SW3.2 kmh SW 10.0 mph16.1 kmh 29.99 in1015.6 mb 0.00 in0.0 mm 0.00 in0.0 mm 0.45 in11.4 mm
04:15 PM 59.7°F15.4°C 59.1°F15.1°C 100% 3.0 mph SW4.8 kmh SW 9.0 mph14.5 kmh 29.99 in1015.6 mb 0.00 in0.0 mm 0.00 in0.0 mm 0.45 in11.4 mm
04:20 PM 59.7°F15.4°C 59.1°F15.1°C 100% 3.0 mph SW4.8 kmh SW 9.0 mph14.5 kmh 29.99 in1015.6 mb 0.00 in0.0 mm 0.00 in0.0 mm 0.45 in11.4 mm
04:25 PM 60.0°F15.6°C 59.7°F15.4°C 99% 2.0 mph SW3.2 kmh SW 7.0 mph11.3 kmh 29.99 in1015.6 mb 0.00 in0.0 mm 0.00 in0.0 mm 0.45 in11.4 mm
04:30 PM 60.0°F15.6°C 59.4°F15.2°C 100% 2.0 mph SW3.2 kmh SW 10.0 mph16.1 kmh 29.99 in1015.6 mb 0.00 in0.0 mm 0.00 in0.0 mm 0.45 in11.4 mm
04:35 PM 60.0°F15.6°C 59.4°F15.2°C 100% 3.0 mph SW4.8 kmh SW 10.0 mph16.1 kmh 29.99 in1015.6 mb 0.00 in0.0 mm 0.00 in0.0 mm 0.45 in11.4 mm
04:40 PM 60.1°F15.6°C 59.5°F15.3°C 100% 3.0 mph SW4.8 kmh SW 10.0 mph16.1 kmh 29.99 in1015.6 mb 0.00 in0.0 mm 0.00 in0.0 mm 0.45 in11.4 mm
04:45 PM 60.1°F15.6°C 59.5°F15.3°C 100% 3.0 mph SW4.8 kmh SW 17.0 mph27.4 kmh 29.99 in1015.6 mb 0.00 in0.0 mm 0.00 in0.0 mm 0.45 in11.4 mm
04:50 PM 59.7°F15.4°C 59.1°F15.1°C 100% 5.0 mph WSW8.0 kmh WSW 21.0 mph33.8 kmh 29.99 in1015.6 mb 0.00 in0.0 mm 0.00 in0.0 mm 0.45 in11.4 mm
04:55 PM 59.4°F15.2°C 58.5°F14.7°C 97% 8.0 mph WSW12.9 kmh WSW 21.0 mph33.8 kmh 29.99 in1015.6 mb 0.00 in0.0 mm 0.00 in0.0 mm 0.45 in11.4 mm
05:00 PM 59.0°F15.0°C 58.2°F14.6°C 97% 8.0 mph SW12.9 kmh SW 20.0 mph32.2 kmh 29.98 in1015.2 mb 0.00 in0.0 mm 0.00 in0.0 mm 0.45 in11.4 mm
05:05 PM 59.0°F15.0°C 58.2°F14.6°C 97% 8.0 mph SW12.9 kmh SW 20.0 mph32.2 kmh 29.99 in1015.6 mb 0.00 in0.0 mm 0.00 in0.0 mm 0.45 in11.4 mm
05:10 PM 59.0°F15.0°C 57.9°F14.4°C 96% 7.0 mph SW11.3 kmh SW 17.0 mph27.4 kmh 29.99 in1015.6 mb 0.00 in0.0 mm 0.00 in0.0 mm 0.45 in11.4 mm
05:15 PM 59.0°F15.0°C 57.9°F14.4°C 96% 6.0 mph WSW9.7 kmh WSW 16.0 mph25.7 kmh 29.98 in1015.2 mb 0.00 in0.0 mm 0.00 in0.0 mm 0.45 in11.4 mm
05:20 PM 59.0°F15.0°C 57.9°F14.4°C 96% 5.0 mph WSW8.0 kmh WSW 16.0 mph25.7 kmh 29.99 in1015.6 mb 0.00 in0.0 mm 0.00 in0.0 mm 0.45 in11.4 mm
05:25 PM 59.0°F15.0°C 57.9°F14.4°C 96% 4.0 mph WSW6.4 kmh WSW 12.0 mph19.3 kmh 29.99 in1015.6 mb 0.00 in0.0 mm 0.00 in0.0 mm 0.45 in11.4 mm
05:30 PM 59.2°F15.1°C 58.1°F14.5°C 96% 3.0 mph WSW4.8 kmh WSW 13.0 mph20.9 kmh 29.99 in1015.6 mb 0.00 in0.0 mm 0.00 in0.0 mm 0.45 in11.4 mm
05:35 PM 59.4°F15.2°C 58.3°F14.6°C 96% 3.0 mph WSW4.8 kmh WSW 13.0 mph20.9 kmh 29.98 in1015.2 mb 0.00 in0.0 mm 0.00 in0.0 mm 0.45 in11.4 mm
05:40 PM 59.4°F15.2°C 58.3°F14.6°C 96% 3.0 mph SW4.8 kmh SW 11.0 mph17.7 kmh 29.99 in1015.6 mb 0.00 in0.0 mm 0.00 in0.0 mm 0.45 in11.4 mm
05:45 PM 59.4°F15.2°C 58.3°F14.6°C 96% 2.0 mph WSW3.2 kmh WSW 12.0 mph19.3 kmh 29.98 in1015.2 mb 0.00 in0.0 mm 0.00 in0.0 mm 0.45 in11.4 mm
05:50 PM 59.4°F15.2°C 58.0°F14.4°C 95% 3.0 mph WSW4.8 kmh WSW 13.0 mph20.9 kmh 29.98 in1015.2 mb 0.00 in0.0 mm 0.00 in0.0 mm 0.45 in11.4 mm
05:55 PM 59.4°F15.2°C 58.0°F14.4°C 95% 4.0 mph WSW6.4 kmh WSW 13.0 mph20.9 kmh 29.99 in1015.6 mb 0.00 in0.0 mm 0.00 in0.0 mm 0.45 in11.4 mm
06:00 PM 59.3°F15.2°C 57.6°F14.2°C 94% 3.0 mph WSW4.8 kmh WSW 10.0 mph16.1 kmh 29.99 in1015.6 mb 0.00 in0.0 mm 0.00 in0.0 mm 0.45 in11.4 mm
06:05 PM 59.3°F15.2°C 57.6°F14.2°C 94% 3.0 mph WSW4.8 kmh WSW 9.0 mph14.5 kmh 29.99 in1015.6 mb 0.00 in0.0 mm 0.00 in0.0 mm 0.45 in11.4 mm
06:10 PM 59.2°F15.1°C 57.5°F14.2°C 94% 3.0 mph WSW4.8 kmh WSW 9.0 mph14.5 kmh 29.99 in1015.6 mb 0.00 in0.0 mm 0.00 in0.0 mm 0.45 in11.4 mm
06:15 PM 59.3°F15.2°C 57.9°F14.4°C 95% 3.0 mph WSW4.8 kmh WSW 10.0 mph16.1 kmh 29.99 in1015.6 mb 0.00 in0.0 mm 0.00 in0.0 mm 0.45 in11.4 mm
06:20 PM 59.4°F15.2°C 57.7°F14.3°C 94% 4.0 mph WSW6.4 kmh WSW 12.0 mph19.3 kmh 29.99 in1015.6 mb 0.00 in0.0 mm 0.00 in0.0 mm 0.45 in11.4 mm
06:25 PM 59.4°F15.2°C 57.4°F14.1°C 93% 4.0 mph WSW6.4 kmh WSW 12.0 mph19.3 kmh 29.99 in1015.6 mb 0.00 in0.0 mm 0.00 in0.0 mm 0.45 in11.4 mm
06:30 PM 59.5°F15.3°C 57.8°F14.3°C 94% 3.0 mph WSW4.8 kmh WSW 11.0 mph17.7 kmh 29.99 in1015.6 mb 0.00 in0.0 mm 0.00 in0.0 mm 0.45 in11.4 mm
06:35 PM 59.6°F15.3°C 57.9°F14.4°C 94% 3.0 mph WSW4.8 kmh WSW 11.0 mph17.7 kmh 29.98 in1015.2 mb 0.00 in0.0 mm 0.00 in0.0 mm 0.45 in11.4 mm
06:40 PM 59.7°F15.4°C 58.3°F14.6°C 95% 2.0 mph WSW3.2 kmh WSW 7.0 mph11.3 kmh 29.99 in1015.6 mb 0.00 in0.0 mm 0.00 in0.0 mm 0.45 in11.4 mm
06:45 PM 59.8°F15.4°C 58.1°F14.5°C 94% 2.0 mph WSW3.2 kmh WSW 7.0 mph11.3 kmh 29.99 in1015.6 mb 0.00 in0.0 mm 0.00 in0.0 mm 0.45 in11.4 mm
06:50 PM 59.8°F15.4°C 58.1°F14.5°C 94% 2.0 mph WSW3.2 kmh WSW 9.0 mph14.5 kmh 29.99 in1015.6 mb 0.00 in0.0 mm 0.00 in0.0 mm 0.45 in11.4 mm
06:55 PM 60.0°F15.6°C 58.3°F14.6°C 94% 2.0 mph SW3.2 kmh SW 9.0 mph14.5 kmh 29.99 in1015.6 mb 0.00 in0.0 mm 0.00 in0.0 mm 0.45 in11.4 mm
07:00 PM 60.0°F15.6°C 58.0°F14.4°C 93% 2.0 mph SW3.2 kmh SW 7.0 mph11.3 kmh 29.99 in1015.6 mb 0.00 in0.0 mm 0.00 in0.0 mm 0.45 in11.4 mm
07:05 PM 60.1°F15.6°C 58.1°F14.5°C 93% 2.0 mph WSW3.2 kmh WSW 7.0 mph11.3 kmh 29.99 in1015.6 mb 0.00 in0.0 mm 0.00 in0.0 mm 0.45 in11.4 mm
07:10 PM 60.0°F15.6°C 58.3°F14.6°C 94% 2.0 mph SW3.2 kmh SW 6.0 mph9.7 kmh 29.99 in1015.6 mb 0.00 in0.0 mm 0.00 in0.0 mm 0.45 in11.4 mm
07:15 PM 60.0°F15.6°C 58.0°F14.4°C 93% 2.0 mph SW3.2 kmh SW 6.0 mph9.7 kmh 29.99 in1015.6 mb 0.00 in0.0 mm 0.00 in0.0 mm 0.45 in11.4 mm
07:20 PM 60.0°F15.6°C 58.0°F14.4°C 93% 2.0 mph SW3.2 kmh SW 7.0 mph11.3 kmh 29.99 in1015.6 mb 0.00 in0.0 mm 0.00 in0.0 mm 0.45 in11.4 mm
07:25 PM 60.0°F15.6°C 58.3°F14.6°C 94% 2.0 mph WSW3.2 kmh WSW 7.0 mph11.3 kmh 29.99 in1015.6 mb 0.00 in0.0 mm 0.00 in0.0 mm 0.45 in11.4 mm
07:30 PM 60.2°F15.7°C 58.5°F14.7°C 94% 2.0 mph WSW3.2 kmh WSW 9.0 mph14.5 kmh 29.99 in1015.6 mb 0.00 in0.0 mm 0.00 in0.0 mm 0.45 in11.4 mm
07:35 PM 60.2°F15.7°C 57.9°F14.4°C 92% 2.0 mph SW3.2 kmh SW 9.0 mph14.5 kmh 29.99 in1015.6 mb 0.00 in0.0 mm 0.00 in0.0 mm 0.45 in11.4 mm
07:40 PM 60.2°F15.7°C 57.9°F14.4°C 92% 3.0 mph SW4.8 kmh SW 7.0 mph11.3 kmh 29.99 in1015.6 mb 0.00 in0.0 mm 0.00 in0.0 mm 0.45 in11.4 mm
07:45 PM 60.2°F15.7°C 57.6°F14.2°C 91% 3.0 mph SW4.8 kmh SW 12.0 mph19.3 kmh 29.99 in1015.6 mb 0.00 in0.0 mm 0.00 in0.0 mm 0.45 in11.4 mm
07:50 PM 60.2°F15.7°C 57.3°F14.1°C 90% 4.0 mph WSW6.4 kmh WSW 14.0 mph22.5 kmh 30.00 in1015.9 mb 0.00 in0.0 mm 0.00 in0.0 mm 0.45 in11.4 mm
07:55 PM 60.1°F15.6°C 56.8°F13.8°C 89% 5.0 mph WSW8.0 kmh WSW 15.0 mph24.1 kmh 30.00 in1015.9 mb 0.00 in0.0 mm 0.00 in0.0 mm 0.45 in11.4 mm
08:00 PM 60.0°F15.6°C 56.4°F13.6°C 88% 4.0 mph WSW6.4 kmh WSW 15.0 mph24.1 kmh 29.99 in1015.6 mb 0.00 in0.0 mm 0.00 in0.0 mm 0.45 in11.4 mm
08:05 PM 60.0°F15.6°C 57.1°F13.9°C 90% 4.0 mph WSW6.4 kmh WSW 13.0 mph20.9 kmh 30.00 in1015.9 mb 0.00 in0.0 mm 0.00 in0.0 mm 0.45 in11.4 mm
08:10 PM 59.9°F15.5°C 56.6°F13.7°C 89% 4.0 mph WSW6.4 kmh WSW 13.0 mph20.9 kmh 30.00 in1015.9 mb 0.00 in0.0 mm 0.00 in0.0 mm 0.45 in11.4 mm
08:15 PM 59.8°F15.4°C 56.6°F13.7°C 89% 4.0 mph WSW6.4 kmh WSW 13.0 mph20.9 kmh 30.00 in1015.9 mb 0.00 in0.0 mm 0.00 in0.0 mm 0.45 in11.4 mm
08:20 PM 59.8°F15.4°C 56.9°F13.8°C 90% 3.0 mph WSW4.8 kmh WSW 12.0 mph19.3 kmh 30.00 in1015.9 mb 0.00 in0.0 mm 0.00 in0.0 mm 0.45 in11.4 mm
08:25 PM 59.7°F15.4°C 56.5°F13.6°C 89% 4.0 mph WSW6.4 kmh WSW 14.0 mph22.5 kmh 30.00 in1015.9 mb 0.00 in0.0 mm 0.00 in0.0 mm 0.45 in11.4 mm
08:30 PM 59.5°F15.3°C 55.6°F13.1°C 87% 4.0 mph WSW6.4 kmh WSW 18.0 mph29.0 kmh 30.00 in1015.9 mb 0.00 in0.0 mm 0.00 in0.0 mm 0.45 in11.4 mm
08:35 PM 59.3°F15.2°C 55.4°F13.0°C 87% 5.0 mph WSW8.0 kmh WSW 18.0 mph29.0 kmh 30.00 in1015.9 mb 0.00 in0.0 mm 0.00 in0.0 mm 0.45 in11.4 mm
08:40 PM 59.2°F15.1°C 55.3°F12.9°C 87% 5.0 mph WSW8.0 kmh WSW 13.0 mph20.9 kmh 30.01 in1016.3 mb 0.00 in0.0 mm 0.00 in0.0 mm 0.45 in11.4 mm
08:45 PM 59.0°F15.0°C 55.1°F12.8°C 87% 4.0 mph WSW6.4 kmh WSW 11.0 mph17.7 kmh 30.01 in1016.3 mb 0.00 in0.0 mm 0.00 in0.0 mm 0.45 in11.4 mm
08:50 PM 59.0°F15.0°C 55.1°F12.8°C 87% 4.0 mph WSW6.4 kmh WSW 12.0 mph19.3 kmh 30.01 in1016.3 mb 0.00 in0.0 mm 0.00 in0.0 mm 0.45 in11.4 mm
08:55 PM 59.0°F15.0°C 55.1°F12.8°C 87% 5.0 mph WSW8.0 kmh WSW 12.0 mph19.3 kmh 30.01 in1016.3 mb 0.00 in0.0 mm 0.00 in0.0 mm 0.45 in11.4 mm
09:00 PM 58.9°F14.9°C 55.0°F12.8°C 87% 4.0 mph WSW6.4 kmh WSW 12.0 mph19.3 kmh 30.01 in1016.3 mb 0.00 in0.0 mm 0.00 in0.0 mm 0.45 in11.4 mm
09:05 PM 58.7°F14.8°C 55.2°F12.9°C 88% 3.0 mph WSW4.8 kmh WSW 12.0 mph19.3 kmh 30.01 in1016.3 mb 0.00 in0.0 mm 0.00 in0.0 mm 0.45 in11.4 mm
09:10 PM 58.6°F14.8°C 55.1°F12.8°C 88% 2.0 mph WSW3.2 kmh WSW 10.0 mph16.1 kmh 30.01 in1016.3 mb 0.00 in0.0 mm 0.00 in0.0 mm 0.45 in11.4 mm
09:15 PM 58.4°F14.7°C 55.2°F12.9°C 89% 2.0 mph WSW3.2 kmh WSW 10.0 mph16.1 kmh 30.01 in1016.3 mb 0.00 in0.0 mm 0.00 in0.0 mm 0.45 in11.4 mm
09:20 PM 58.2°F14.6°C 55.3°F12.9°C 90% 2.0 mph WSW3.2 kmh WSW 6.0 mph9.7 kmh 30.01 in1016.3 mb 0.00 in0.0 mm 0.00 in0.0 mm 0.45 in11.4 mm
09:25 PM 58.1°F14.5°C 55.2°F12.9°C 90% 2.0 mph WSW3.2 kmh WSW 5.0 mph8.0 kmh 30.01 in1016.3 mb 0.00 in0.0 mm 0.00 in0.0 mm 0.45 in11.4 mm
09:30 PM 57.9°F14.4°C 55.3°F12.9°C 91% 1.0 mph WSW1.6 kmh WSW 5.0 mph8.0 kmh 30.02 in1016.6 mb 0.00 in0.0 mm 0.00 in0.0 mm 0.45 in11.4 mm
09:35 PM 57.7°F14.3°C 55.4°F13.0°C 92% 1.0 mph WSW1.6 kmh WSW 5.0 mph8.0 kmh 30.02 in1016.6 mb 0.00 in0.0 mm 0.00 in0.0 mm 0.45 in11.4 mm
09:40 PM 57.6°F14.2°C 55.3°F12.9°C 92% 1.0 mph WSW1.6 kmh WSW 4.0 mph6.4 kmh 30.02 in1016.6 mb 0.00 in0.0 mm 0.00 in0.0 mm 0.45 in11.4 mm
09:45 PM 57.5°F14.2°C 55.2°F12.9°C 92% 1.0 mph WSW1.6 kmh WSW 6.0 mph9.7 kmh 30.02 in1016.6 mb 0.00 in0.0 mm 0.00 in0.0 mm 0.45 in11.4 mm
09:50 PM 57.3°F14.1°C 55.0°F12.8°C 92% 2.0 mph SW3.2 kmh SW 7.0 mph11.3 kmh 30.02 in1016.6 mb 0.00 in0.0 mm 0.00 in0.0 mm 0.45 in11.4 mm
09:55 PM 57.2°F14.0°C 55.2°F12.9°C 93% 2.0 mph SW3.2 kmh SW 7.0 mph11.3 kmh 30.02 in1016.6 mb 0.00 in0.0 mm 0.00 in0.0 mm 0.45 in11.4 mm
10:00 PM 57.1°F13.9°C 55.1°F12.8°C 93% 2.0 mph SW3.2 kmh SW 8.0 mph12.9 kmh 30.02 in1016.6 mb 0.00 in0.0 mm 0.00 in0.0 mm 0.45 in11.4 mm
10:05 PM 56.9°F13.8°C 54.6°F12.6°C 92% 1.0 mph SW1.6 kmh SW 8.0 mph12.9 kmh 30.03 in1016.9 mb 0.00 in0.0 mm 0.00 in0.0 mm 0.45 in11.4 mm
10:10 PM 56.7°F13.7°C 54.7°F12.6°C 93% 1.0 mph SW1.6 kmh SW 5.0 mph8.0 kmh 30.03 in1016.9 mb 0.00 in0.0 mm 0.00 in0.0 mm 0.45 in11.4 mm
10:15 PM 56.6°F13.7°C 54.6°F12.6°C 93% 1.0 mph SW1.6 kmh SW 4.0 mph6.4 kmh 30.03 in1016.9 mb 0.00 in0.0 mm 0.00 in0.0 mm 0.45 in11.4 mm
10:20 PM 56.4°F13.6°C 54.4°F12.4°C 93% 1.0 mph SW1.6 kmh SW 4.0 mph6.4 kmh 30.03 in1016.9 mb 0.00 in0.0 mm 0.00 in0.0 mm 0.45 in11.4 mm
10:25 PM 56.2°F13.4°C 54.2°F12.3°C 93% 1.0 mph SW1.6 kmh SW 5.0 mph8.0 kmh 30.03 in1016.9 mb 0.00 in0.0 mm 0.00 in0.0 mm 0.45 in11.4 mm
10:30 PM 56.2°F13.4°C 54.5°F12.5°C 94% 1.0 mph SW1.6 kmh SW 5.0 mph8.0 kmh 30.03 in1016.9 mb 0.00 in0.0 mm 0.00 in0.0 mm 0.45 in11.4 mm
10:35 PM 56.0°F13.3°C 54.3°F12.4°C 94% 1.0 mph SW1.6 kmh SW 4.0 mph6.4 kmh 30.03 in1016.9 mb 0.00 in0.0 mm 0.00 in0.0 mm 0.45 in11.4 mm
10:40 PM 55.9°F13.3°C 54.2°F12.3°C 94% 1.0 mph SW1.6 kmh SW 4.0 mph6.4 kmh 30.03 in1016.9 mb 0.00 in0.0 mm 0.00 in0.0 mm 0.45 in11.4 mm
10:45 PM 55.8°F13.2°C 54.1°F12.3°C 94% 1.0 mph SW1.6 kmh SW 4.0 mph6.4 kmh 30.03 in1016.9 mb 0.00 in0.0 mm 0.00 in0.0 mm 0.45 in11.4 mm
10:50 PM 55.7°F13.2°C 54.0°F12.2°C 94% 1.0 mph SW1.6 kmh SW 4.0 mph6.4 kmh 30.03 in1016.9 mb 0.00 in0.0 mm 0.00 in0.0 mm 0.45 in11.4 mm
10:55 PM 55.6°F13.1°C 53.9°F12.2°C 94% 1.0 mph SW1.6 kmh SW 6.0 mph9.7 kmh 30.03 in1016.9 mb 0.00 in0.0 mm 0.00 in0.0 mm 0.45 in11.4 mm
11:00 PM 55.5°F13.1°C 53.8°F12.1°C 94% 1.0 mph SSW1.6 kmh SSW 6.0 mph9.7 kmh 30.03 in1016.9 mb 0.00 in0.0 mm 0.00 in0.0 mm 0.29 in7.4 mm
11:05 PM 55.4°F13.0°C 53.7°F12.1°C 94% 1.0 mph SSW1.6 kmh SSW 3.0 mph4.8 kmh 30.03 in1016.9 mb 0.00 in0.0 mm 0.00 in0.0 mm 0.29 in7.4 mm
11:10 PM 55.3°F12.9°C 53.6°F12.0°C 94% Calm Calm 3.0 mph4.8 kmh 30.03 in1016.9 mb 0.00 in0.0 mm 0.00 in0.0 mm 0.29 in7.4 mm
11:15 PM 55.1°F12.8°C 53.7°F12.1°C 95% Calm Calm 2.0 mph3.2 kmh 30.04 in1017.3 mb 0.00 in0.0 mm 0.00 in0.0 mm 0.29 in7.4 mm
11:20 PM 55.0°F12.8°C 53.6°F12.0°C 95% Calm Calm 4.0 mph6.4 kmh 30.04 in1017.3 mb 0.00 in0.0 mm 0.00 in0.0 mm 0.29 in7.4 mm
11:25 PM 54.9°F12.7°C 53.5°F11.9°C 95% 1.0 mph SE1.6 kmh SE 4.0 mph6.4 kmh 30.04 in1017.3 mb 0.00 in0.0 mm 0.00 in0.0 mm 0.29 in7.4 mm
11:30 PM 54.8°F12.7°C 53.4°F11.9°C 95% Calm Calm 3.0 mph4.8 kmh 30.04 in1017.3 mb 0.00 in0.0 mm 0.00 in0.0 mm 0.29 in7.4 mm
11:35 PM 54.6°F12.6°C 53.2°F11.8°C 95% Calm Calm 3.0 mph4.8 kmh 30.04 in1017.3 mb 0.00 in0.0 mm 0.00 in0.0 mm 0.29 in7.4 mm
11:40 PM 54.5°F12.5°C 53.1°F11.7°C 95% Calm Calm 3.0 mph4.8 kmh 30.04 in1017.3 mb 0.00 in0.0 mm 0.00 in0.0 mm 0.29 in7.4 mm
11:45 PM 54.4°F12.4°C 53.0°F11.7°C 95% Calm Calm 3.0 mph4.8 kmh 30.04 in1017.3 mb 0.00 in0.0 mm 0.00 in0.0 mm 0.29 in7.4 mm
11:50 PM 54.3°F12.4°C 53.2°F11.8°C 96% Calm Calm 3.0 mph4.8 kmh 30.04 in1017.3 mb 0.00 in0.0 mm 0.00 in0.0 mm 0.29 in7.4 mm
11:55 PM 54.3°F12.4°C 53.2°F11.8°C 96% Calm Calm 2.0 mph3.2 kmh 30.04 in1017.3 mb 0.00 in0.0 mm 0.00 in0.0 mm 0.29 in7.4 mm